DW6743 Weather Reports


Display with metric or nautical units.
time (UTC)temp
F
wind
direction
speed
MPH
gust
MPH
rain 1hr
in
rain 24hr
in
rain mn
in
humidity
%
barometer
mb
20260509134804 56 11 9.0 12.0 0.00 0.00 0.00 65 1021.8
20260509134630 56 17 9.0 14.0 0.00 0.00 0.00 65 1021.9
20260509133804 57 0 7.0 12.0 0.00 0.00 0.00 64 1022.0
20260509133304 57 333 10.0 12.0 0.00 0.00 0.00 66 1022.0
20260509133110 56 340 7.0 12.0 0.00 0.00 0.00 65 1021.9
20260509131557 55 297 8.0 13.0 0.00 0.00 0.00 65 1022.1
20260509130804 56 324 10.0 13.0 0.00 0.00 0.00 64 1022.3
20260509130305 56 332 10.0 12.0 0.00 0.00 0.00 65 1022.3
20260509130111 56 319 9.0 13.0 0.00 0.00 0.00 64 1022.3
20260509124804 56 318 10.0 13.0 0.00 0.00 0.00 65 1022.4
20260509124602 56 323 9.0 13.0 0.00 0.00 0.00 65 1022.4
20260509124304 56 314 8.0 12.0 0.00 0.00 0.00 65 1022.5
20260509123057 56 354 9.0 13.0 0.00 0.00 0.00 64 1022.5
20260509121804 56 329 9.0 12.0 0.00 0.00 0.00 62 1022.7
20260509121557 56 331 8.0 13.0 0.00 0.00 0.00 62 1022.7
20260509121304 56 323 9.0 13.0 0.00 0.00 0.00 62 1022.8
20260509120804 57 332 8.0 13.0 0.00 0.00 0.00 62 1022.8
20260509120057 56 323 8.0 13.0 0.00 0.00 0.00 61 1022.9
20260509114804 56 352 10.0 13.0 0.00 0.00 0.00 60 1023.0
20260509114558 56 331 10.0 13.0 0.00 0.00 0.00 60 1023.0
20260509114304 57 323 10.0 12.0 0.00 0.00 0.00 59 1023.1
20260509113804 56 330 9.0 12.0 0.00 0.00 0.00 60 1023.1
20260509113304 56 322 8.0 13.0 0.00 0.00 0.00 59 1023.1
20260509113058 55 306 8.0 13.0 0.00 0.00 0.00 59 1023.0
20260509111804 56 321 10.0 12.0 0.00 0.00 0.00 55 1023.1
20260509111557 55 314 8.0 13.0 0.00 0.00 0.00 55 1023.1
20260509111304 56 318 9.0 13.0 0.00 0.00 0.00 54 1023.1
20260509110804 56 320 11.0 13.0 0.00 0.00 0.00 54 1023.2
20260509110304 55 318 10.0 12.0 0.00 0.00 0.00 56 1023.2
20260509110055 55 316 9.0 12.0 0.00 0.00 0.00 55 1023.1
20260509104804 55 318 10.0 12.0 0.00 0.00 0.00 54 1023.3
20260509104555 55 318 9.0 13.0 0.00 0.00 0.00 55 1023.3
20260509104304 56 322 8.0 12.0 0.00 0.00 0.00 57 1023.5
20260509103304 55 314 10.0 14.0 0.00 0.00 0.00 58 1023.6
20260509103058 54 333 9.0 14.0 0.00 0.00 0.00 57 1023.5
20260509101804 55 319 10.0 14.0 0.00 0.00 0.00 65 1023.6
20260509101605 55 333 10.0 13.0 0.00 0.00 0.00 65 1023.5
20260509101304 55 320 9.0 12.0 0.00 0.00 0.00 64 1023.7
20260509100804 55 336 8.0 12.0 0.00 0.00 0.00 64 1023.7
20260509100305 55 342 8.0 14.0 0.00 0.00 0.00 65 1023.8
20260509100057 55 300 9.0 14.0 0.00 0.00 0.00 65 1023.6
20260509094558 55 316 10.0 14.0 0.00 0.00 0.00 67 1023.9
20260509093304 55 354 5.0 12.0 0.00 0.00 0.00 72 1023.8
20260509093100 55 325 7.0 11.0 0.00 0.00 0.00 72 1023.8
20260509091804 55 322 5.0 10.0 0.00 0.00 0.00 73 1024.0
20260509091602 54 350 6.0 11.0 0.00 0.00 0.00 72 1024.0
20260509091304 54 332 7.0 10.0 0.00 0.00 0.00 74 1024.0
20260509090305 54 321 9.0 12.0 0.00 0.00 0.00 76 1024.0
20260509090100 54 323 7.0 12.0 0.00 0.00 0.00 75 1024.0
20260509084804 54 319 8.0 10.0 0.00 0.00 0.00 76 1024.0
20260509084600 53 318 7.0 10.0 0.00 0.00 0.00 76 1024.0
20260509084304 53 329 8.0 10.0 0.00 0.00 0.00 76 1024.0
20260509083805 54 332 7.0 9.0 0.00 0.00 0.00 76 1024.1
20260509083304 54 325 7.0 10.0 0.00 0.00 0.00 76 1024.0
20260509083101 53 323 6.0 10.0 0.00 0.00 0.00 76 1024.0
20260509081804 53 307 7.0 9.0 0.00 0.00 0.00 76 1024.2
20260509081558 53 304 7.0 11.0 0.00 0.00 0.00 76 1024.2
20260509081304 54 303 7.0 12.0 0.00 0.00 0.00 76 1024.2
20260509080804 54 308 7.0 10.0 0.00 0.00 0.00 76 1024.2
20260509080057 54 345 5.0 9.0 0.00 0.00 0.00 75 1024.1
20260509074804 55 302 5.0 8.0 0.00 0.00 0.00 74 1024.2
20260509074605 54 286 5.0 8.0 0.00 0.00 0.00 73 1024.1
20260509074304 55 301 6.0 8.0 0.00 0.00 0.00 74 1024.2
20260509073804 54 292 5.0 7.0 0.00 0.00 0.00 74 1024.2
20260509073101 54 273 3.0 6.0 0.00 0.00 0.00 73 1024.1
20260509071804 54 318 3.0 5.0 0.00 0.00 0.00 73 1024.2
20260509071605 54 318 2.0 4.0 0.00 0.00 0.00 72 1024.1
20260509071304 54 278 2.0 3.0 0.00 0.00 0.00 72 1024.2
20260509070804 54 204 2.0 3.0 0.00 0.00 0.00 72 1024.1
20260509070059 54 204 1.0 4.0 0.00 0.00 0.00 71 1024.0
20260509064804 53 204 3.0 5.0 0.00 0.00 0.00 73 1024.1
20260509064618 52 204 3.0 6.0 0.00 0.00 0.00 72 1024.1
20260509064304 52 204 3.0 6.0 0.00 0.00 0.00 72 1024.1
20260509063804 52 204 5.0 6.0 0.00 0.00 0.00 72 1024.0
20260509063305 52 199 3.0 6.0 0.00 0.00 0.00 73 1024.1
20260509063100 51 192 4.0 6.0 0.00 0.00 0.00 73 1024.0
20260509061622 50 0 3.0 6.0 0.00 0.00 0.00 74 1024.1
20260509061304 51 155 2.0 5.0 0.00 0.00 0.00 75 1024.1
20260509060306 50 184 6.0 8.0 0.00 0.00 0.00 76 1024.0
20260509060058 50 174 5.0 8.0 0.00 0.00 0.00 75 1024.0
20260509054804 49 178 7.0 9.0 0.00 0.00 0.00 77 1024.0
20260509054559 48 178 6.0 10.0 0.00 0.00 0.00 77 1023.9
20260509053804 48 171 6.0 10.0 0.00 0.00 0.00 78 1024.0
20260509053102 47 167 7.0 10.0 0.00 0.00 0.00 79 1023.9
20260509051804 46 176 8.0 10.0 0.00 0.00 0.00 80 1023.9
20260509051607 46 180 8.0 10.0 0.00 0.00 0.00 80 1024.0
20260509051304 46 179 9.0 10.0 0.00 0.00 0.00 81 1024.0
20260509050804 45 177 9.0 10.0 0.00 0.00 0.00 81 1024.0
20260509050304 45 177 9.0 10.0 0.00 0.00 0.00 82 1024.0
20260509050105 44 177 9.0 10.0 0.00 0.00 0.00 81 1023.9
20260509044804 44 174 9.0 10.0 0.00 0.00 0.00 82 1023.9
20260509044610 43 171 8.0 10.0 0.00 0.00 0.00 82 1023.9
20260509044304 43 175 8.0 10.0 0.00 0.00 0.00 83 1023.9
20260509043804 43 173 8.0 10.0 0.00 0.00 0.00 83 1023.9
20260509043304 43 174 9.0 12.0 0.00 0.00 0.00 83 1023.9
20260509043106 42 182 9.0 11.0 0.00 0.00 0.00 83 1023.8
20260509041804 42 177 10.0 12.0 0.00 0.00 0.00 84 1023.8
20260509041606 41 177 9.0 11.0 0.00 0.00 0.00 83 1023.8
20260509041304 42 179 10.0 12.0 0.00 0.00 0.00 84 1023.9
20260509040804 41 179 10.0 12.0 0.00 0.00 0.00 84 1023.9
20260509040106 40 180 10.0 11.0 0.00 0.00 0.00 84 1023.9
20260509034804 40 183 9.0 10.0 0.00 0.00 0.00 84 1024.1
20260509034558 40 183 9.0 10.0 0.00 0.00 0.00 83 1024.1
20260509034304 40 186 9.0 10.0 0.00 0.00 0.00 84 1024.0
20260509033804 40 186 9.0 10.0 0.00 0.00 0.00 84 1024.1
20260509033059 40 188 8.0 10.0 0.00 0.00 0.00 83 1024.1
20260509031804 40 191 8.0 10.0 0.00 0.00 0.00 83 1024.0
20260509031600 39 195 7.0 9.0 0.00 0.00 0.00 83 1024.1
20260509031304 39 197 7.0 9.0 0.00 0.00 0.00 83 1024.1
20260509030804 39 196 7.0 8.0 0.00 0.00 0.00 83 1024.1
20260509030304 40 197 7.0 9.0 0.00 0.00 0.00 83 1024.2
20260509030056 39 197 7.0 9.0 0.00 0.00 0.00 83 1024.1
20260509024558 39 186 7.0 9.0 0.00 0.00 0.00 82 1024.1
20260509023804 40 202 6.0 7.0 0.00 0.00 0.00 82 1024.2
20260509023304 40 202 6.0 8.0 0.00 0.00 0.00 82 1024.3
20260509023102 40 202 6.0 8.0 0.00 0.00 0.00 82 1024.3
20260509021804 41 202 7.0 8.0 0.00 0.00 0.00 82 1024.3
20260509021600 41 202 7.0 8.0 0.00 0.00 0.00 82 1024.3
20260509021304 41 207 7.0 8.0 0.00 0.00 0.00 82 1024.3
20260509020804 41 202 7.0 8.0 0.00 0.00 0.00 82 1024.3
20260509020304 41 202 7.0 8.0 0.00 0.00 0.00 82 1024.4
20260509020058 41 202 6.0 8.0 0.00 0.00 0.00 82 1024.3
20260509014804 41 204 7.0 8.0 0.00 0.00 0.00 82 1024.4
20260509014558 41 204 7.0 9.0 0.00 0.00 0.00 82 1024.4
20260509014304 40 199 7.0 8.0 0.00 0.00 0.00 82 1024.4
20260509013804 40 203 7.0 8.0 0.00 0.00 0.00 81 1024.4
20260509013304 40 204 8.0 9.0 0.00 0.00 0.00 81 1024.4
20260509013059 39 203 7.0 9.0 0.00 0.00 0.00 81 1024.3
20260509011804 40 211 7.0 8.0 0.00 0.00 0.00 81 1024.4
20260509011601 39 213 7.0 9.0 0.00 0.00 0.00 80 1024.4
20260509011304 40 210 7.0 8.0 0.00 0.00 0.00 81 1024.5
20260509010304 40 209 7.0 10.0 0.00 0.00 0.00 80 1024.6
20260509010104 40 210 7.0 10.0 0.00 0.00 0.00 80 1024.5
20260509004804 41 218 8.0 10.0 0.00 0.00 0.00 80 1024.5
20260509004621 40 217 7.0 11.0 0.00 0.00 0.00 79 1024.5
20260509004304 41 216 9.0 10.0 0.00 0.00 0.00 80 1024.6
20260509003805 41 210 8.0 9.0 0.00 0.00 0.00 80 1024.5
20260509003305 41 204 9.0 10.0 0.00 0.00 0.00 80 1024.6
20260509003057 41 202 9.0 10.0 0.00 0.00 0.00 79 1024.5
20260509001804 41 208 8.0 10.0 0.00 0.00 0.00 78 1024.5
20260509001559 41 208 8.0 10.0 0.00 0.00 0.00 78 1024.4
20260509001304 41 206 9.0 10.0 0.00 0.00 0.00 78 1024.5
20260509000805 41 208 8.0 9.0 0.00 0.00 0.00 78 1024.5
20260509000304 42 207 8.0 8.0 0.00 0.00 0.00 77 1024.5
20260509000056 41 215 7.0 9.0 0.00 0.00 0.00 77 1024.4
20260508234804 43 212 7.0 8.0 0.00 0.00 0.00 77 1024.4
20260508234606 43 206 7.0 9.0 0.00 0.00 0.00 77 1024.4
20260508234304 44 201 7.0 9.0 0.00 0.00 0.00 77 1024.4
20260508233804 44 198 8.0 9.0 0.00 0.00 0.00 77 1024.5
20260508233058 43 194 9.0 10.0 0.00 0.00 0.00 77 1024.5
20260508231804 42 191 9.0 10.0 0.00 0.00 0.00 78 1024.6
20260508231559 42 190 8.0 10.0 0.00 0.00 0.00 78 1024.6
20260508231304 42 189 9.0 9.0 0.00 0.00 0.00 78 1024.6
20260508230804 41 239 9.0 9.0 0.00 0.00 0.00 78 1024.6
20260508230304 41 239 8.0 9.0 0.00 0.00 0.00 79 1024.7
20260508230058 41 239 8.0 9.0 0.00 0.00 0.00 78 1024.5
20260508224804 41 239 7.0 8.0 0.00 0.00 0.00 78 1024.5
20260508224559 41 239 6.0 8.0 0.00 0.00 0.00 77 1024.4
20260508224304 41 239 5.0 7.0 0.00 0.00 0.00 78 1024.5
20260508223304 42 239 5.0 5.0 0.00 0.00 0.00 78 1024.5
20260508223058 42 239 4.0 5.0 0.00 0.00 0.00 77 1024.3
20260508221805 43 239 5.0 5.0 0.00 0.00 0.00 77 1024.4
20260508221558 42 239 4.0 7.0 0.00 0.00 0.00 77 1024.5
20260508221304 43 239 5.0 5.0 0.00 0.00 0.00 77 1024.4
20260508220305 43 239 4.0 5.0 0.00 0.00 0.00 77 1024.4
20260508220100 43 239 3.0 5.0 0.00 0.00 0.00 77 1024.2
20260508214607 43 239 3.0 5.0 0.00 0.00 0.00 77 1024.3
20260508214304 44 354 4.0 5.0 0.00 0.00 0.00 77 1024.3
20260508213804 44 354 3.0 3.0 0.00 0.00 0.00 77 1024.3
20260508213304 44 354 3.0 3.0 0.00 0.00 0.00 76 1024.3
20260508213057 44 354 2.0 3.0 0.00 0.00 0.00 76 1024.2
20260508211804 45 354 1.0 2.0 0.00 0.00 0.00 76 1024.2
20260508211559 45 354 0.0 2.0 0.00 0.00 0.00 76 1024.1
20260508211304 45 354 1.0 1.0 0.00 0.00 0.00 76 1024.1
20260508210804 45 354 1.0 1.0 0.00 0.00 0.00 76 1024.1
20260508210304 45 354 0.0 1.0 0.00 0.00 0.00 76 1024.1
20260508210100 45 0 0.0 1.0 0.00 0.00 0.00 75 1024.0
20260508204558 45 0 0.0 1.0 0.00 0.00 0.00 75 1024.0
20260508204304 46 354 0.0 0.0 0.00 0.00 0.00 75 1024.0
20260508203304 47 354 0.0 2.0 0.00 0.00 0.00 74 1023.9
20260508203057 46 0 0.0 2.0 0.00 0.00 0.00 74 1023.9
20260508201558 47 0 0.0 1.0 0.00 0.00 0.00 73 1023.7
20260508201304 48 354 0.0 1.0 0.00 0.00 0.00 74 1023.7
20260508200805 48 354 1.0 1.0 0.00 0.00 0.00 73 1023.7
20260508200057 48 354 1.0 3.0 0.00 0.00 0.00 72 1023.7
20260508194804 49 354 2.0 3.0 0.00 0.00 0.00 71 1023.7
20260508194558 49 354 1.0 3.0 0.00 0.00 0.00 70 1023.6
20260508194304 50 354 2.0 3.0 0.00 0.00 0.00 71 1023.7
20260508193804 50 354 2.0 3.0 0.00 0.00 0.00 70 1023.7
20260508193304 50 354 2.0 3.0 0.00 0.00 0.00 70 1023.7
20260508193110 50 354 2.0 3.0 0.00 0.00 0.00 69 1023.6
20260508191804 52 354 1.0 2.0 0.00 0.00 0.00 68 1023.4
20260508191600 51 0 0.0 1.0 0.00 0.00 0.00 67 1023.4
20260508191304 52 354 0.0 0.0 0.00 0.00 0.00 67 1023.5
20260508190804 52 354 1.0 1.0 0.00 0.00 0.00 67 1023.4
20260508190304 53 354 1.0 2.0 0.00 0.00 0.00 66 1023.4
20260508190113 52 354 1.0 2.0 0.00 0.00 0.00 65 1023.3
20260508184804 54 354 1.0 2.0 0.00 0.00 0.00 64 1023.3
20260508184604 54 354 0.0 3.0 0.00 0.00 0.00 63 1023.3
20260508184304 55 354 1.0 2.0 0.00 0.00 0.00 63 1023.3
20260508183804 55 354 2.0 3.0 0.00 0.00 0.00 62 1023.3
20260508183304 55 354 2.0 3.0 0.00 0.00 0.00 62 1023.3
20260508183115 55 354 1.0 3.0 0.00 0.00 0.00 61 1023.2
20260508181600 55 354 2.0 4.0 0.00 0.00 0.00 62 1023.2
20260508181304 55 343 2.0 3.0 0.00 0.00 0.00 62 1023.2
20260508180804 56 322 2.0 3.0 0.00 0.00 0.00 61 1023.2
20260508180304 56 322 2.0 3.0 0.00 0.00 0.00 61 1023.2
20260508174804 56 322 2.0 3.0 0.00 0.00 0.00 62 1023.2
20260508174612 56 322 1.0 4.0 0.00 0.00 0.00 61 1023.2
20260508174304 56 322 2.0 3.0 0.00 0.00 0.00 61 1023.2
20260508173304 56 359 1.0 5.0 0.00 0.00 0.00 61 1023.1
20260508173058 56 359 1.0 5.0 0.00 0.00 0.00 61 1023.1
20260508171804 56 345 3.0 8.0 0.00 0.00 0.00 67 1023.1
20260508171606 55 6 4.0 8.0 0.00 0.00 0.00 66 1023.0
20260508171304 56 23 3.0 6.0 0.00 0.00 0.00 66 1023.1
20260508170804 56 25 6.0 8.0 0.00 0.00 0.00 66 1023.1
20260508170304 56 38 5.0 7.0 0.00 0.00 0.00 66 1023.1
20260508170106 55 50 3.0 7.0 0.00 0.00 0.00 65 1023.1
20260508164600 56 1 3.0 5.0 0.00 0.00 0.00 66 1023.0
20260508164304 56 6 3.0 5.0 0.00 0.00 0.00 67 1022.9
20260508163804 56 334 3.0 5.0 0.00 0.00 0.00 67 1022.9
20260508163057 56 312 3.0 6.0 0.00 0.00 0.00 68 1022.8
20260508161804 56 312 4.0 6.0 0.00 0.00 0.00 69 1023.0
20260508161606 56 304 3.0 8.0 0.00 0.00 0.00 69 1023.0
20260508160804 57 317 3.0 9.0 0.00 0.00 0.00 69 1023.0
20260508160304 56 22 5.0 10.0 0.00 0.00 0.00 70 1022.9
20260508160055 56 10 3.0 10.0 0.00 0.00 0.00 70 1023.0
20260508154555 56 337 4.0 9.0 0.00 0.00 0.00 70 1022.8
20260508154304 57 11 5.0 7.0 0.00 0.00 0.00 71 1023.0
20260508153804 56 321 5.0 9.0 0.00 0.00 0.00 72 1022.9
20260508153304 56 332 4.0 10.0 0.00 0.00 0.00 71 1022.9
20260508153059 56 300 7.0 10.0 0.00 0.00 0.00 70 1022.8
20260508151804 56 315 5.0 9.0 0.00 0.00 0.00 69 1023.0
20260508151557 56 302 6.0 9.0 0.00 0.00 0.00 70 1022.9
20260508151304 56 320 6.0 8.0 0.00 0.00 0.00 70 1023.0
20260508150804 56 310 6.0 8.0 0.00 0.00 0.00 69 1023.0
20260508150304 56 298 6.0 9.0 0.00 0.00 0.00 70 1023.0
20260508150059 56 311 5.0 9.0 0.00 0.00 0.00 70 1023.0
20260508144804 56 296 7.0 8.0 0.00 0.00 0.00 71 1023.1
20260508144607 55 284 5.0 10.0 0.00 0.00 0.00 70 1023.1
20260508144304 56 301 7.0 9.0 0.00 0.00 0.00 72 1023.2
20260508143804 56 309 9.0 10.0 0.00 0.00 0.00 72 1023.2
20260508143305 56 296 9.0 12.0 0.00 0.00 0.00 71 1023.3
20260508143059 55 301 7.0 12.0 0.00 0.00 0.00 71 1023.2
20260508141804 56 319 9.0 12.0 0.00 0.00 0.00 72 1023.3
20260508141606 56 309 7.0 10.0 0.00 0.00 0.00 72 1023.4
20260508141304 56 311 7.0 10.0 0.00 0.00 0.00 72 1023.4
20260508140804 56 300 7.0 12.0 0.00 0.00 0.00 71 1023.3
20260508140057 55 322 8.0 12.0 0.00 0.00 0.00 72 1023.2